Weather in Amga

Russia / Sakha (Yakutia) Republic     60°53′49″N   131°59′13″E
temp.,
°C
wind,
m/s
gust,
m/s
humid.,
%
clouds,
%
prec.,
mm/h
press.,
hPa
HPBL,
m
17 june, thu
thu1700:00+13nnw2466100 0.0 100274
03:00+10nne117417 0.0 100413
06:00+15ne310485 0.0 1006414
09:00+19nne352852 0.0 1006840
12:00+23ne462271 0.0 10051422
15:00+24ne4622100 0.0 10041829
18:00+22ene2537100 0.0 1005305
21:00+16ene1159100 0.0 100611
18 june, fri
fri1800:00+13ene1163100 0.0 100610
03:00+12ene2267100 0.0 100734
06:00+17ese4136191 0.0 1007779
09:00+19ese6105090 0.0 10071064
12:00+12e41186100 0.8 1009572
15:00+20ese4851100 0.8 10071423
18:00+21ese595692 0.0 1007864
21:00+17ese41168100 0.0 1008480
19 june, sat
sat1900:00+15ese31063100 0.0 1009337
03:00+12ene2370100 0.0 101077
06:00+15e385986 0.0 1010293
09:00+21ese464499 0.0 1010840
12:00+24ese4536100 0.0 10101317
15:00+26se343675 0.0 10091487
18:00+25ese3444100 0.0 1009931
21:00+18ese227075 0.0 101013
20 june, sun
sun2000:00+14se117653 0.0 101111
03:00+12ese11810 0.0 101110
06:00+18ese11630 0.0 1011132
09:00+24sse12375 0.0 1010749
12:00+28ssw11265 0.0 10091479
15:00+29wnw12255 0.0 10071936
18:00+28wsw133911 0.0 10061506
21:00+21w116842 0.0 100611
21 june, mon
mon2100:00+17wnw117771 0.0 100611
03:00+16w118026 0.0 100611
06:00+21w25655 0.0 1006237
09:00+26nw58395 0.0 10051276
12:00+29nw45315 0.0 10042379
15:00+30nw44286 0.0 10032928
18:00+29nnw35359 0.0 10021956
21:00+21wnw22639 0.0 100216